| time (UTC) | temp C | wind direction | speed KPH | gust KPH | rain 1hr cm | rain 24hr cm | rain mn cm | humidity % | barometer mb |
| 20260507054600 | 11 | 180 | 4.8 | 9.7 | 0.00 | 1.30 | 0.00 | 98 | 1003.1 |
| 20260507054559 | 11 | 180 | 4.8 | 9.7 | 0.00 | 1.30 | 0.00 | 98 | 1003.1 |
| 20260507053058 | 11 | 222 | 3.2 | 16.1 | 0.00 | 1.30 | 0.00 | 10 | 1003.1 |
| 20260507051555 | 11 | 222 | 3.2 | 12.9 | 0.00 | 1.30 | 0.00 | 10 | |
| 20260507050055 | 11 | 222 | 1.6 | 6.4 | 0.00 | 1.30 | 0.00 | 10 | 1003.1 |
| 20260507043054 | 11 | 135 | 0.0 | 0.0 | 0.00 | 1.30 | 0.00 | 10 | 1003.0 |
| 20260507034547 | 11 | 180 | 1.6 | 3.2 | 0.00 | 1.30 | 0.00 | 10 | 1002.1 |
| 20260507031543 | 11 | 222 | 0.0 | 0.0 | 0.00 | 1.30 | 0.00 | 10 | 1002.0 |
| 20260507021539 | 11 | 180 | 0.0 | 0.0 | 0.00 | 1.30 | 0.00 | 10 | 1002.0 |
| 20260507014537 | 10 | 180 | 0.0 | 0.0 | 0.00 | 3.84 | 0.00 | 10 | |
| 20260507013036 | 10 | 180 | 0.0 | 0.0 | 0.00 | 1.30 | 0.00 | 10 | 1002.1 |
| 20260507011533 | 10 | 222 | 0.0 | 0.0 | 0.00 | 1.30 | 0.00 | 10 | 1002.2 |
| 20260507010030 | 10 | 180 | 0.0 | 1.6 | 0.00 | 1.30 | 0.00 | 10 | 1001.1 |
| 20260507004530 | 10 | 222 | 1.6 | 4.8 | 0.00 | 1.30 | 0.00 | 10 | 1001.1 |
| 20260507003030 | 10 | 222 | 0.0 | 0.0 | 0.00 | 1.30 | 0.00 | 10 | 1001.1 |
| 20260507001528 | 10 | 270 | 0.0 | 0.0 | 0.00 | 1.30 | 0.00 | 10 | 1001.0 |
| 20260507000029 | 11 | 222 | 0.0 | 0.0 | 0.00 | 1.30 | 0.00 | 10 | |
| 20260506234527 | 11 | 180 | 4.8 | 9.7 | 0.00 | 1.30 | 0.00 | 10 | 1002.1 |
| 20260506233025 | 11 | 222 | 4.8 | 12.9 | 0.00 | 1.30 | 0.00 | 10 | 1002.1 |
| 20260506231524 | 11 | 180 | 3.2 | 9.7 | 0.00 | 1.30 | 0.00 | 10 | 1001.1 |
| 20260506230024 | 11 | 135 | 1.6 | 4.8 | 0.00 | 0.00 | 0.00 | 1001.0 | |
| 20260506230022 | 11 | 135 | 1.6 | 4.8 | 0.00 | 1.30 | 0.00 | 10 | 1001.0 |
| 20260506224520 | 11 | 222 | 0.0 | 0.0 | 0.03 | 1.27 | 0.00 | 99 | 1000.9 |
| 20260506221518 | 12 | 270 | 1.6 | 4.8 | 0.03 | 1.27 | 0.00 | 98 | 1000.8 |
| 20260506214716 | 12 | 180 | 0.0 | 0.0 | 0.03 | 1.27 | 0.00 | 10 | 1000.8 |
| 20260506213217 | 12 | 222 | 1.6 | 1.6 | 0.03 | 1.27 | 0.00 | 10 | 1000.8 |
| 20260506211716 | 12 | 222 | 6.4 | 16.1 | 0.03 | 1.27 | 0.00 | 10 | 1001.0 |
| 20260506210216 | 12 | 0 | 4.8 | 6.4 | 0.00 | 1.27 | 0.00 | 99 | 999.8 |
| 20260506204713 | 12 | 0 | 3.2 | 4.8 | 0.23 | 1.02 | 0.00 | 99 | 999.7 |
| 20260506203211 | 12 | 315 | 3.2 | 6.4 | 0.23 | 1.02 | 0.00 | 10 | 999.8 |
| 20260506201709 | 12 | 315 | 6.4 | 9.7 | 0.20 | 1.02 | 0.00 | 10 | 999.8 |
| 20260506200210 | 12 | 270 | 9.7 | 17.7 | 0.00 | 1.02 | 0.00 | 10 | 999.8 |
| 20260506200208 | 12 | 270 | 9.7 | 17.7 | 0.00 | 1.02 | 0.00 | 10 | 999.8 |
| 20260506194708 | 13 | 270 | 6.4 | 12.9 | 0.03 | 0.03 | 0.00 | 98 | 999.7 |
| 20260506193206 | 13 | 180 | 14.5 | 25.7 | 0.00 | 0.03 | 0.00 | 92 | 999.7 |
| 20260506191705 | 15 | 90 | 3.2 | 4.8 | 0.00 | 0.03 | 0.00 | 82 | 998.4 |
| 20260506190204 | 15 | 90 | 0.0 | 0.0 | 0.00 | 0.03 | 0.00 | 80 | 998.4 |
| 20260506184703 | 15 | 90 | 4.8 | 9.7 | 0.00 | 0.03 | 0.00 | 75 | 998.4 |
| 20260506183203 | 15 | 315 | 6.4 | 9.7 | 0.00 | 0.03 | 0.00 | 75 | 997.4 |
| 20260506181701 | 15 | 315 | 4.8 | 6.4 | 0.00 | 0.03 | 0.00 | 72 | 997.3 |
| 20260506180201 | 15 | 315 | 8.0 | 14.5 | 0.00 | 0.03 | 0.00 | 70 | 997.3 |
| 20260506174659 | 16 | 270 | 0.0 | 0.0 | 0.00 | 0.03 | 0.00 | 67 | 997.2 |
| 20260506173158 | 16 | 270 | 4.8 | 6.4 | 0.00 | 0.03 | 0.00 | 70 | 996.1 |
| 20260506171659 | 17 | 315 | 11.3 | 19.3 | 0.00 | 0.03 | 0.00 | 69 | 997.1 |
| 20260506170155 | 18 | 270 | 4.8 | 9.7 | 0.00 | 0.03 | 0.00 | 73 | 996.0 |
| 20260506164655 | 18 | 315 | 8.0 | 12.9 | 0.00 | 0.03 | 0.00 | 70 | 996.0 |
| 20260506163154 | 18 | 315 | 9.7 | 16.1 | 0.00 | 0.03 | 0.00 | 69 | 996.0 |
| 20260506161652 | 19 | 315 | 4.8 | 6.4 | 0.00 | 0.03 | 0.00 | 64 | 995.8 |
| 20260506160149 | 19 | 0 | 1.6 | 4.8 | 0.00 | 0.03 | 0.00 | 64 | 995.8 |
| 20260506153148 | 20 | 180 | 3.2 | 6.4 | 0.00 | 0.03 | 0.00 | 65 | 996.7 |
| 20260506151647 | 20 | 270 | 4.8 | 11.3 | 0.00 | 0.03 | 0.00 | 66 | 996.7 |
| 20260506150144 | 20 | 90 | 6.4 | 11.3 | 0.00 | 0.03 | 0.00 | 66 | 996.8 |
| 20260506144641 | 21 | 90 | 4.8 | 8.0 | 0.00 | 0.03 | 0.00 | 58 | 996.6 |
| 20260506143143 | 21 | 315 | 3.2 | 9.7 | 0.00 | 0.03 | 0.00 | 59 | 996.6 |
| 20260506143139 | 21 | 315 | 3.2 | 9.7 | 0.00 | 0.03 | 0.00 | 59 | 996.6 |
| 20260506141638 | 21 | 222 | 8.0 | 12.9 | 0.00 | 0.03 | 0.00 | 54 | 996.6 |
| 20260506141636 | 21 | 222 | 8.0 | 12.9 | 0.00 | 0.03 | 0.00 | 54 | 996.6 |
| 20260506140133 | -17 | 222 | 9.7 | 0.0 | 0.00 | 0.03 | 0.00 | 55 | 0.9 |
| 20260506134635 | 24 | 45 | 4.8 | 9.7 | 0.00 | 0.03 | 0.00 | 51 | 996.3 |
| 20260506134631 | 24 | 45 | 4.8 | 9.7 | 0.00 | 0.03 | 0.00 | 51 | 996.3 |
| 20260506131627 | 23 | 90 | 4.8 | 6.4 | 0.00 | 0.03 | 0.00 | 49 | 996.4 |
| 20260506130127 | 22 | 90 | 1.6 | 6.4 | 0.00 | 0.00 | 0.00 | ||
| 20260506124625 | 21 | 180 | 9.7 | 17.7 | 0.00 | 0.03 | 0.00 | 58 | 997.8 |
| 20260506123125 | 21 | 222 | 4.8 | 8.0 | 0.00 | 0.03 | 0.00 | 997.7 | |
| 20260506123123 | 21 | 222 | 4.8 | 8.0 | 0.00 | 0.03 | 0.00 | 53 | 997.7 |
| 20260506121622 | 21 | 180 | 1.6 | 3.2 | 0.00 | 0.03 | 0.00 | 57 | 997.7 |
| 20260506120121 | 20 | 222 | 3.2 | 8.0 | 0.00 | 0.03 | 0.00 | 59 | 997.9 |
| 20260506114620 | 22 | 222 | 3.2 | 6.4 | 0.00 | 0.03 | 0.00 | 54 | 997.6 |
| 20260506113120 | 23 | 222 | 3.2 | 6.4 | 0.00 | 0.03 | 0.00 | 57 | 997.5 |
| 20260506111618 | 21 | 270 | 4.8 | 9.7 | 0.00 | 0.03 | 0.00 | 63 | 997.8 |
| 20260506110118 | 19 | 222 | 4.8 | 12.9 | 0.00 | 0.03 | 0.00 | 65 | 998.0 |
| 20260506104616 | 19 | 222 | 3.2 | 6.4 | 0.00 | 0.03 | 0.00 | 64 | 999.0 |
| 20260506103115 | 18 | 90 | 3.2 | 6.4 | 0.00 | 0.03 | 0.00 | 68 | 999.0 |
| 20260506101614 | 17 | 180 | 8.0 | 12.9 | 0.00 | 0.03 | 0.00 | 70 | 999.2 |
| 20260506100112 | 18 | 180 | 3.2 | 6.4 | 0.00 | 0.03 | 0.00 | 70 | 999.0 |
| 20260506093108 | 16 | 222 | 8.0 | 20.9 | 0.00 | 0.03 | 0.00 | 74 | 999.3 |
| 20260506091607 | 17 | 180 | 4.8 | 8.0 | 0.00 | 0.03 | 0.00 | 77 | 999.3 |
| 20260506090107 | 16 | 180 | 4.8 | 6.4 | 0.00 | 0.03 | 0.00 | 79 | |
| 20260506084609 | 16 | 180 | 4.8 | 12.9 | 0.00 | 0.03 | 0.00 | ||
| 20260506084607 | 16 | 180 | 4.8 | 12.9 | 0.00 | 0.03 | 0.00 | 73 | 999.3 |
| 20260506083106 | 16 | 180 | 8.0 | 17.7 | 0.00 | 0.03 | 0.00 | 81 | 999.4 |
| 20260506081604 | 15 | 222 | 4.8 | 12.9 | 0.00 | 0.00 | 0.00 | 82 | 999.5 |
| 20260506073101 | 14 | 90 | 8.0 | 17.7 | 0.00 | 0.03 | 0.00 | 94 | 999.6 |
| 20260506071600 | 14 | 222 | 4.8 | 12.9 | 0.00 | 0.03 | 0.00 | 95 | 999.7 |